Location: The Saddle
(36.8333°N, 80.3417°W)
Time: 20:58:00
(UTC-05:00)

A-11 Canister half - Pass Details

Date: 19 December 2023
Orbit: 1526 x 1682 km, 47.3° (Epoch: 25 February)

Event Time Altitude Azimuth Distance (km) Brightness Sun altitude
Rises 18:03:13 0° 279° (W) 4,907 12.8 -10.9°
Reaches altitude 10° 18:06:35 10° 286° (WNW) 3,931 12.0 -11.5°
Maximum altitude 18:16:15 46° 358° (N) 2,138 9.6 -13.3°
Enters shadow 18:23:41 18° 63° (ENE) 3,327 10.1 -14.8°
Drops below altitude 10° 18:25:54 10° 70° (ENE) 3,928 - -15.2°
Sets 18:29:16 0° 76° (ENE) 4,903 - -15.8°
